Theta_e
348 348 349 349 349 349 349 349 350 351 352 352 353 353 354 354 354 353 352 353 355 356 356 355 353 352 352 353 353 353 353 351 350 353 355 353 352 354 355 353 352 351
346 346 346 347 348 348 348 348 349 349 349 350 350 349 351 352 353 354 354 353 355 355 355 354 352 353 353 353 354 354 354 354 355 356 355 353 351 353 354 354 353 352
344 344 344 345 346 347 347 347 347 348 349 348 348 348 347 348 349 351 353 354 354 355 355 354 353 353 354 355 356 356 354 355 357 358 357 356 354 352 353 353 354 353
342 343 343 344 345 345 345 346 347 347 347 347 346 345 345 345 346 348 350 352 354 355 355 355 354 353 353 354 356 356 355 354 355 357 358 357 355 354 353 354 353 352
343 343 343 344 344 344 345 345 346 346 346 346 345 344 344 344 346 347 349 351 353 354 355 356 357 355 354 354 354 355 356 355 355 356 357 355 351 352 354 354 353 353
343 344 344 344 343 344 344 345 345 346 345 345 345 345 345 345 346 348 350 351 352 353 354 356 356 356 355 354 353 354 355 354 356 356 356 356 352 349 351 351 351 352
343 343 343 344 344 344 344 345 344 345 345 345 344 345 346 346 347 348 349 349 350 352 354 354 354 354 355 355 354 353 353 353 354 356 356 356 355 354 353 352 350 351
343 344 343 344 344 344 344 344 344 344 344 344 345 345 345 346 346 347 346 347 347 350 352 353 353 353 354 355 355 353 352 353 354 354 354 355 356 356 356 355 352 350
343 343 343 343 343 343 344 343 343 343 343 343 344 345 345 346 346 346 346 346 347 349 351 353 353 352 352 354 355 353 352 352 353 353 354 355 355 355 355 356 354 352
342 342 342 342 342 342 342 342 342 342 342 343 344 344 345 345 345 346 346 347 348 349 351 352 353 353 352 353 354 354 353 352 352 353 354 355 355 354 353 355 356 354
341 340 340 340 340 340 341 341 341 342 342 343 344 344 344 345 346 346 346 347 348 348 349 350 352 352 352 353 353 353 354 353 352 353 354 354 354 354 353 353 355 355
340 340 340 339 339 340 340 341 342 342 343 344 344 344 345 345 346 346 346 346 346 347 347 348 350 351 351 351 351 353 353 352 352 353 353 353 353 353 353 353 354 354
339 338 339 339 340 341 341 341 342 342 343 343 344 344 344 345 345 345 346 346 346 346 346 347 348 349 350 350 350 352 352 351 351 351 351 352 352 352 352 352 353 353
339 338 339 339 340 341 341 342 342 342 343 343 343 344 344 344 345 345 346 346 347 347 347 347 348 349 351 351 351 352 352 352 351 351 351 351 352 351 352 352 352 352
338 339 339 339 340 340 341 341 342 341 342 343 343 344 344 344 344 344 345 345 346 347 347 347 348 349 350 350 352 353 352 352 351 350 351 350 351 351 351 351 352 351
338 338 339 339 340 340 340 341 341 342 342 342 343 343 343 343 343 344 344 345 345 346 346 347 348 348 347 347 350 352 351 351 351 350 350 350 350 351 350 350 350 351
338 338 338 339 339 339 340 340 340 341 341 341 342 342 343 343 343 343 343 344 345 346 345 346 347 347 346 346 347 349 350 351 351 350 350 350 350 350 350 350 350 351
337 337 338 338 339 339 339 340 339 340 341 341 341 342 342 342 342 343 343 344 344 345 345 346 346 347 346 345 346 347 349 351 350 350 350 349 349 349 348 349 351 351
336 337 338 337 338 339 339 340 339 340 341 341 341 341 342 342 342 343 343 343 344 344 344 344 345 345 346 344 345 347 349 350 350 349 349 349 349 349 348 349 350 350
336 337 337 338 338 338 338 339 339 340 340 341 341 341 340 342 342 343 343 343 343 343 343 344 344 345 345 344 344 347 348 349 349 348 348 348 348 348 348 348 349 350
336 337 337 337 338 337 338 339 339 340 340 340 340 340 340 342 342 342 343 343 343 343 343 344 344 344 345 344 345 347 347 348 348 347 348 348 347 347 347 347 349 350
336 336 336 337 337 337 338 339 339 340 340 339 340 340 340 341 341 342 342 342 342 342 342 343 343 343 344 345 345 346 346 347 348 348 348 348 347 348 348 347 348 349
336 336 336 336 337 337 338 338 339 339 339 339 339 340 340 341 341 341 341 341 341 342 341 342 343 343 343 343 344 344 345 347 347 348 349 348 348 348 347 347 348 348
335 335 335 336 336 336 337 338 338 338 339 339 339 339 340 341 341 341 341 341 340 340 341 342 342 342 342 342 342 343 344 345 345 346 347 347 349 349 347 347 348 348
334 335 335 335 335 336 337 337 338 338 338 338 338 339 340 340 340 340 340 340 340 340 341 341 342 343 342 342 341 341 342 344 344 345 346 347 347 347 347 347 348 348
334 334 335 335 335 335 336 337 337 337 338 338 338 340 340 340 340 340 340 340 340 340 341 341 341 342 342 342 341 340 340 343 345 345 346 346 346 345 346 347 347 347
Wind_Speed
7 8 8 9 9 9 9 9 10 10 11 11 11 12 11 12 14 15 15 16 19 20 20 21 22 22 22 22 22 22 22 23 22 20 20 20 19 19 20 22 23 22
7 8 9 10 10 10 10 10 11 11 12 12 12 13 12 12 13 14 13 13 16 18 18 18 19 20 20 20 20 21 21 21 20 21 24 23 21 21 20 22 23 23
8 9 10 11 11 12 12 12 12 12 13 13 13 14 13 12 12 12 12 13 15 17 17 17 17 18 18 18 19 21 23 22 21 20 22 21 22 23 22 22 22 22
10 11 11 12 12 13 14 14 13 13 13 13 13 14 14 13 12 12 12 13 14 15 15 15 16 16 17 18 19 20 23 25 26 22 20 20 22 23 21 21 21 22
11 12 12 12 13 14 14 14 14 14 14 14 14 14 14 14 13 13 12 12 13 15 15 16 16 15 17 18 20 21 22 23 25 24 22 22 25 25 21 19 20 21
12 13 13 13 13 14 14 14 15 15 15 15 14 14 14 14 15 15 15 15 14 15 16 16 15 15 18 21 22 23 23 22 21 21 23 25 27 27 24 22 22 21
13 13 13 14 14 14 14 15 15 15 15 16 15 15 15 16 16 16 17 16 15 15 15 16 15 15 17 20 22 23 23 24 23 21 22 25 27 26 25 26 26 23
13 14 14 14 14 14 15 15 15 15 15 15 16 17 17 17 17 16 16 15 14 15 17 17 17 17 17 18 20 22 22 23 24 23 23 26 28 27 25 25 26 27
14 14 14 14 14 15 15 15 15 15 16 16 17 17 17 17 17 16 16 16 17 17 18 18 17 17 17 18 20 21 23 24 24 23 23 25 29 31 28 24 23 25
14 14 14 14 14 14 15 15 16 16 16 16 17 17 16 16 17 18 18 18 18 17 17 17 16 15 15 17 19 19 21 24 25 25 24 23 26 31 31 27 24 25
15 15 15 15 15 15 15 16 16 16 16 16 17 17 17 17 18 19 18 18 18 17 17 17 16 14 14 15 17 18 19 21 23 25 26 23 24 28 29 27 24 26
15 15 15 16 16 16 16 17 17 17 16 17 18 18 18 18 19 19 19 19 18 18 18 18 18 17 15 16 17 18 19 20 20 24 26 26 27 27 27 26 26 26
15 15 16 16 16 16 17 18 18 17 17 18 18 19 19 19 19 19 19 19 19 19 19 19 19 20 18 17 17 17 18 19 21 23 23 24 25 27 27 27 28 29
15 16 16 16 17 17 18 18 18 18 18 18 19 19 19 19 19 19 19 19 19 19 19 19 19 20 19 17 16 15 16 17 20 22 24 24 24 25 26 27 28 30
15 16 16 17 17 18 18 19 19 19 19 19 20 20 19 19 20 20 20 21 20 20 20 20 20 20 19 16 14 14 15 16 17 19 21 23 24 25 27 28 29 29
16 16 16 17 17 18 18 19 20 19 19 19 20 20 20 20 20 21 21 21 21 21 21 20 20 20 19 17 16 16 17 18 18 18 18 20 22 23 25 27 28 29
16 16 16 17 18 18 18 20 20 20 20 20 20 21 21 20 20 20 20 20 20 20 21 20 20 21 20 18 18 19 19 19 19 18 18 19 21 23 24 25 25 27
16 17 17 18 19 19 19 20 20 20 21 21 21 21 20 20 20 20 20 20 20 20 21 20 19 20 20 18 18 19 19 19 19 18 17 19 21 23 25 25 25 26
16 17 18 19 20 20 20 20 20 20 20 21 22 21 21 21 20 21 21 21 21 20 20 20 20 20 20 18 18 19 18 18 19 18 17 18 20 21 23 25 25 25
16 17 18 19 20 21 21 21 21 20 21 22 22 22 21 21 21 21 21 20 20 21 21 20 20 20 20 19 18 18 18 18 19 19 18 19 19 20 22 23 25 25
16 17 18 20 21 21 21 21 21 21 21 22 23 22 21 22 21 21 21 20 20 21 21 21 20 19 19 18 18 18 18 18 19 19 19 19 19 20 21 22 23 24
16 18 19 20 21 21 21 21 21 21 22 22 22 22 21 21 21 21 20 20 21 21 21 21 21 19 19 18 19 19 18 17 19 19 18 18 18 20 20 21 22 24
17 18 19 20 21 21 21 21 22 22 23 22 22 22 21 21 20 21 21 21 22 22 21 21 21 20 19 18 19 19 17 17 18 19 17 17 17 18 19 19 21 22
18 19 19 20 21 22 22 22 23 23 23 22 21 21 22 21 21 21 22 22 21 21 21 21 21 21 20 19 19 18 17 17 18 19 18 17 16 17 19 19 19 20
19 20 20 21 21 22 23 23 24 24 24 23 23 22 22 22 22 21 22 22 21 21 21 20 20 20 20 20 19 19 18 18 18 20 19 16 16 18 20 20 20 20
20 20 21 21 22 23 24 24 23 23 24 25 25 24 23 23 22 21 22 23 23 22 21 20 20 20 19 18 18 20 20 18 17 19 19 16 16 17 18 19 20 19
Wind_Direction
324 323 321 317 314 311 309 309 305 297 295 291 282 278 274 271 271 261 250 243 241 245 250 254 257 258 257 253 253 254 252 251 248 246 248 245 240 242 244 246 247 250
325 323 319 316 312 308 307 305 304 303 300 296 292 291 284 280 281 275 268 262 253 251 252 255 259 261 263 262 257 254 251 248 251 255 257 250 239 237 242 246 247 247
323 322 320 318 313 311 310 307 303 300 297 295 294 295 292 288 284 279 279 278 266 257 254 258 263 260 260 261 258 256 253 251 253 259 262 256 245 241 242 246 248 247
319 319 316 313 311 310 310 307 304 299 296 298 298 297 294 293 292 286 284 284 274 264 260 264 269 262 254 252 251 254 255 253 251 252 258 258 253 249 246 244 245 245
315 314 311 310 309 308 307 304 304 303 301 300 299 298 298 301 304 299 293 289 281 275 270 265 262 257 255 254 251 251 255 257 254 249 250 256 258 258 252 244 244 244
314 312 311 311 309 307 305 302 301 301 300 299 299 300 302 305 305 301 296 291 285 281 277 269 261 257 259 261 257 255 257 259 258 251 248 249 253 258 258 251 251 250
314 313 312 310 307 306 304 301 299 298 297 299 301 302 301 301 299 297 295 292 288 287 284 277 270 261 260 264 263 260 260 260 259 257 251 248 247 252 257 256 254 255
312 311 310 308 308 307 305 301 300 301 301 301 300 299 299 299 297 294 293 294 295 295 294 287 275 265 263 264 264 264 261 258 258 260 257 251 247 248 253 256 254 254
311 309 309 308 308 306 303 302 302 303 304 302 299 297 296 295 295 296 298 300 299 298 297 293 280 268 264 258 259 265 264 259 256 257 257 255 253 251 250 253 254 255
313 313 313 311 310 307 305 305 306 306 306 303 301 298 297 296 297 298 300 299 297 295 295 294 284 268 259 253 256 264 266 263 258 253 253 258 261 259 254 251 254 256
316 318 318 316 316 314 312 312 312 311 308 306 304 302 300 299 298 297 297 296 295 294 293 297 295 281 266 261 263 266 266 264 261 255 253 255 261 264 260 254 250 251
319 320 320 320 320 318 317 317 315 312 309 307 306 304 302 300 297 296 296 295 294 294 294 295 298 293 278 269 268 268 268 265 261 260 259 259 259 260 259 253 247 247
320 321 321 320 318 316 315 314 312 310 307 306 306 304 301 299 297 296 296 296 294 295 295 293 296 296 286 276 272 270 270 268 263 262 262 262 260 258 256 254 249 246
321 320 319 317 314 314 314 313 311 309 307 307 305 303 300 298 298 297 296 297 295 294 294 292 292 291 283 276 270 265 270 273 269 265 263 260 261 261 259 256 253 247
320 318 316 315 315 315 315 313 312 310 309 308 306 303 300 298 298 297 295 295 295 294 294 292 290 289 285 279 269 261 264 270 270 268 265 261 261 264 263 259 256 250
318 317 316 316 316 315 314 313 312 311 309 308 306 304 302 300 299 298 296 294 294 293 293 292 291 292 291 285 277 271 269 271 272 270 268 265 262 264 264 259 255 251
318 318 317 316 314 314 314 313 312 311 309 307 307 305 303 303 301 299 296 294 293 293 293 291 290 292 294 289 281 278 276 275 274 273 272 269 264 263 263 259 255 253
319 317 316 315 315 315 315 313 311 310 308 307 307 306 304 304 301 299 297 296 294 292 291 290 289 291 294 293 284 279 278 276 274 275 274 271 268 266 265 262 257 255
318 317 316 315 316 316 315 313 311 309 307 307 306 306 305 303 301 299 297 296 294 293 291 291 290 289 291 291 284 277 276 276 275 275 273 272 271 269 267 265 261 257
320 320 318 315 315 315 314 312 311 309 309 307 307 306 304 302 301 300 298 296 294 293 292 291 290 289 290 290 284 277 275 273 272 273 274 271 269 267 266 265 263 257
321 319 315 313 313 313 312 310 309 309 309 308 307 305 303 302 300 298 297 296 295 293 292 291 289 290 291 290 285 281 278 272 270 272 273 271 270 268 264 262 261 256
321 316 312 313 313 311 309 308 308 309 309 308 307 305 302 301 299 298 297 296 296 295 293 291 291 292 293 291 287 284 278 271 269 270 269 268 270 271 268 263 260 256
317 313 311 311 311 309 308 307 308 309 308 307 307 305 302 300 298 298 297 295 295 295 293 292 293 295 295 292 291 289 283 275 271 269 266 265 265 269 270 266 260 257
316 314 313 312 309 307 306 307 309 309 307 306 306 303 300 299 298 297 295 294 293 292 292 293 292 294 294 291 291 290 284 278 274 269 266 265 262 266 271 268 262 260
316 315 313 310 307 305 305 305 306 307 306 305 304 301 298 298 298 296 293 292 292 290 291 292 290 290 292 292 290 288 283 280 276 268 265 267 266 267 271 270 266 264
315 314 311 309 306 305 304 303 303 305 306 305 303 300 298 297 296 295 293 293 293 292 291 291 289 289 290 289 289 290 288 284 275 267 263 264 265 265 264 264 266 266